SCOUT G-1 DEB, 40216

Orbit data source: Space-Track

SCOUT G-1 DEB, 40216 is space debris in LEO originally from a launch on Fri, 14 Nov 1986 UTC launched from the Air Force Western Test Range (AFWTR). Debris objects in space refer to the collection of defunct objects orbiting the Earth. Examples of debris include non-operational satellites, rocket bodies, and fragments generated from explosions, collisions, or faulty payload assembly.

Loading next visibility...
SCOUT G-1 DEB details
Identifier
40216, 1986-088E
Orbit
LEO
Last TLE update8 months ago
Origin
Flag of USUSAF SMC (US)
ManufacturerUnknown
MissionSpacecraft
Bus & MotorUnknown
MassUnknown
Launch date (UTC)
1986-11-14 (38 years ago)
Launch vehicleUnknown
Launch site
Air Force Western Test Range (AFWTR)
Object type
Payload
Rocket body
Debris
Shape & HBRUnknown
Radar Cross SectionSmall (<0.1 m²)

Expand to show TLE details & history

TLE from 8 months ago
0 SCOUT G-1 DEB
1 40216U 86088E   24094.03236041  .00003735  00000-0  29639-2 0  9990
2 40216  89.5872 196.3225 0056079  93.9757 266.7830 13.90368818512590
Epoch: 2024-04-03T00:46Z
Definitive object data (Epoch: 2024-04-03T00:46:35.939Z)
Latitude-0°
Longitude-7.17698°
Altitude932.879 km
Speed7.384 km/s
True Right ascension13h 05m 17s
True Declination0° 00' 00"
Sunlit
Object was in full shadow at TLE epoch
Visualization TLE readout
Latitude21.31822°
Longitude161.37322°
Altitude947.62 km
Speed7.367 km/s
Apparent Right ascension03h 19m 49s
Apparent Declination-14° 13' 28"
Sunlit
Object is in daylight
Visualization observer readout
Local Sidereal Time20:42:43
Azimuth95.268° ESE
Elevation-16.112°
Doppler factor1
Orbital elements
Apogee altitude965.282 km
Perigee altitude883.379 km
Semi-major axis7,302.467 km
Eccentricity0.0056079
Inclination89.5872°
RAAN196.3225°
Arg. of periapsis93.9757°
True anomaly266.14166°
Mean anomaly266.783°
Eccentric anomaly266.4623°
Mean motion3.47807 °/min
BSTAR0.0029639
Orbital period103.51 mins
Loading maneuver chart data...
Loading historical data...
Loading historical data...
Loading historical data...
Loading historical data...
Loading historical data...
Loading historical data...
Loading historical data...

SCOUT G-1 DEB Visibility forecast

Observer location: undefined°, undefined

Span
Click to sort rows by Start time (UTC) header in descending order
Start Az.
Max El. time (UTC)
Max El. Az.
Max El.
End time (UTC)
End Az.
11 mins2024-12-12 01:34:43.735Z6.838° NNE2024-12-12 01:40:43.735Z116.481° SE42.807°2024-12-12 01:45:43.735Z173.344° S
5 mins2024-12-12 03:20:43.735Z312.42° NW2024-12-12 03:22:43.735Z290.236° WNW15.461°2024-12-12 03:25:43.735Z257.411° W
8 mins2024-12-12 13:12:43.735Z140.971° SSE2024-12-12 13:16:43.735Z70.341° E33.106°2024-12-12 13:20:43.735Z16.782° NNE
7 mins2024-12-12 14:56:43.735Z236.411° WSW2024-12-12 14:59:43.735Z277.207° WNW22.518°2024-12-12 15:03:43.735Z327.383° NNW
|